TimeCST,TemperatureF,Dew PointF,Humidity,Sea Level PressureIn,VisibilityMPH,Wind Direction,Wind SpeedMPH,Gust SpeedMPH,PrecipitationIn,Events,Conditions,WindDirDegrees,DateUTC
12:52 AM,17.1,10.0,74,30.38,10.0,Calm,Calm,-,N/A,,Partly Cloudy,0,2013-02-16 06:52:00
1:52 AM,15.1,10.0,80,30.38,10.0,Calm,Calm,-,N/A,,Clear,0,2013-02-16 07:52:00
2:52 AM,14.0,9.0,80,30.35,10.0,Calm,Calm,-,N/A,,Clear,0,2013-02-16 08:52:00
3:52 AM,12.9,9.0,84,30.34,10.0,Calm,Calm,-,N/A,,Clear,0,2013-02-16 09:52:00
4:52 AM,14.0,10.0,84,30.33,10.0,Calm,Calm,-,N/A,,Clear,0,2013-02-16 10:52:00
5:52 AM,17.1,12.0,81,30.31,10.0,SW,4.6,-,N/A,,Scattered Clouds,230,2013-02-16 11:52:00
6:52 AM,17.1,12.9,84,30.30,10.0,South,4.6,-,N/A,,Mostly Cloudy,190,2013-02-16 12:52:00
7:03 AM,17.6,12.2,79,30.25,10.0,South,4.6,-,N/A,,Mostly Cloudy,180,2013-02-16 13:03:00
7:52 AM,14.0,10.0,84,30.28,10.0,SSE,6.9,-,N/A,,Mostly Cloudy,150,2013-02-16 13:52:00
8:52 AM,17.1,12.9,84,30.27,10.0,SSE,8.1,-,N/A,,Scattered Clouds,160,2013-02-16 14:52:00
9:52 AM,21.0,15.1,78,30.24,10.0,SSE,8.1,-,N/A,,Mostly Cloudy,150,2013-02-16 15:52:00
10:52 AM,25.0,17.1,72,30.22,10.0,South,9.2,-,N/A,,Mostly Cloudy,170,2013-02-16 16:52:00
11:52 AM,28.9,18.0,64,30.19,10.0,South,9.2,-,N/A,,Mostly Cloudy,190,2013-02-16 17:52:00
12:52 PM,30.0,19.9,66,30.16,10.0,South,9.2,-,N/A,,Mostly Cloudy,190,2013-02-16 18:52:00
1:52 PM,30.9,21.0,67,30.14,10.0,South,6.9,-,N/A,,Overcast,190,2013-02-16 19:52:00
2:52 PM,32.0,21.9,66,30.12,10.0,South,9.2,-,N/A,,Overcast,170,2013-02-16 20:52:00
3:52 PM,32.0,23.0,69,30.12,10.0,South,6.9,-,N/A,,Overcast,170,2013-02-16 21:52:00
4:52 PM,32.0,23.0,69,30.12,10.0,SSE,11.5,-,N/A,,Mostly Cloudy,150,2013-02-16 22:52:00
5:52 PM,30.9,21.9,69,30.11,10.0,SSE,11.5,-,N/A,,Overcast,160,2013-02-16 23:52:00
6:52 PM,30.9,21.9,69,30.11,10.0,SE,9.2,-,N/A,,Overcast,140,2013-02-17 00:52:00
7:52 PM,30.9,21.9,69,30.10,10.0,SE,10.4,-,N/A,,Overcast,140,2013-02-17 01:52:00
8:52 PM,30.9,21.9,69,30.09,10.0,SE,11.5,-,N/A,,Overcast,140,2013-02-17 02:52:00
9:52 PM,28.9,21.9,75,30.09,10.0,SE,10.4,-,N/A,,Mostly Cloudy,140,2013-02-17 03:52:00
10:52 PM,28.0,21.0,75,30.08,10.0,SE,10.4,-,N/A,,Partly Cloudy,140,2013-02-17 04:52:00
11:52 PM,27.0,21.0,78,30.06,10.0,SE,9.2,-,N/A,,Clear,140,2013-02-17 05:52:00